Location: Newark
(25.7507°S, 31.4676°E)
Time: 13:41:03
(UTC+00:00)

Hubble Space Telescope - Pass Details

Date: 21 January 2020
Orbit: 536 x 540 km, 28.5° (Epoch: 24 February)

Event Time Altitude Azimuth Distance (km) Brightness Sun altitude
Rises 17:28:29 0° 336° (NNW) 2,668 4.3 -8.8°
Reaches altitude 10° 17:32:16 10° 11° (N) 1,783 3.1 -9.5°
Maximum altitude 17:33:34 11° 30° (NNE) 1,703 2.8 -9.8°
Enters shadow 17:34:07 11° 38° (NE) 1,719 2.8 -9.9°
